| time (UTC) | temp F | wind direction | speed MPH | gust MPH | rain 1hr in | rain 24hr in | rain mn in | humidity % | barometer mb |
| 20260901125026 | 55 | 108 | 1.0 | 4.0 | 0.00 | 0.00 | 0.00 | 81 | 1016.0 |
| 20260901124525 | 55 | 108 | 0.0 | 4.0 | 0.00 | 0.00 | 0.00 | 81 | 1016.0 |
| 20260901124030 | 55 | 108 | 1.0 | 4.0 | 0.00 | 0.00 | 0.00 | 81 | 1015.9 |
| 20260901123525 | 55 | 106 | 1.0 | 4.0 | 0.00 | 0.00 | 0.00 | 81 | 1015.8 |
| 20260901123032 | 55 | 104 | 2.0 | 6.0 | 0.00 | 0.00 | 0.00 | 81 | 1015.8 |
| 20260901122525 | 55 | 100 | 2.0 | 6.0 | 0.00 | 0.00 | 0.00 | 81 | 1015.8 |
| 20260901122024 | 55 | 108 | 2.0 | 4.0 | 0.00 | 0.00 | 0.00 | 81 | 1015.7 |
| 20260901121523 | 55 | 106 | 2.0 | 4.0 | 0.00 | 0.00 | 0.00 | 81 | 1015.7 |
| 20260901121025 | 56 | 82 | 0.0 | 3.0 | 0.00 | 0.00 | 0.00 | 81 | 1015.8 |
| 20260901120522 | 56 | 82 | 0.0 | 2.0 | 0.00 | 0.00 | 0.00 | 81 | 1015.7 |
| 20260901120022 | 56 | 81 | 0.0 | 3.0 | 0.00 | 0.00 | 0.00 | 81 | 1015.7 |
| 20260901115522 | 56 | 81 | 1.0 | 3.0 | 0.00 | 0.00 | 0.00 | 81 | 1015.6 |
| 20260901115025 | 56 | 81 | 0.0 | 0.0 | 0.00 | 0.00 | 0.00 | 81 | 1015.6 |
| 20260901114522 | 56 | 81 | 0.0 | 0.0 | 0.00 | 0.00 | 0.00 | 81 | 1015.7 |
| 20260901114021 | 56 | 81 | 0.0 | 0.0 | 0.00 | 0.00 | 0.00 | 81 | 1015.7 |
| 20260901113521 | 56 | 81 | 0.0 | 0.0 | 0.00 | 0.00 | 0.00 | 81 | 1015.7 |
| 20260901113020 | 56 | 81 | 0.0 | 0.0 | 0.00 | 0.00 | 0.00 | 81 | 1015.7 |
| 20260901112520 | 56 | 81 | 0.0 | 0.0 | 0.00 | 0.00 | 0.00 | 81 | 1015.6 |
| 20260901112022 | 56 | 81 | 0.0 | 0.0 | 0.00 | 0.00 | 0.00 | 81 | 1015.6 |
| 20260901111520 | 56 | 81 | 0.0 | 0.0 | 0.00 | 0.00 | 0.00 | 81 | 1015.6 |
| 20260901111020 | 56 | 81 | 0.0 | 0.0 | 0.00 | 0.00 | 0.00 | 81 | 1015.5 |
| 20260901110519 | 56 | 81 | 0.0 | 0.0 | 0.00 | 0.00 | 0.00 | 81 | 1015.5 |
| 20260901110019 | 56 | 81 | 0.0 | 0.0 | 0.00 | 0.00 | 0.00 | 81 | 1015.4 |
| 20260901105521 | 56 | 81 | 0.0 | 1.0 | 0.00 | 0.00 | 0.00 | 81 | 1015.4 |
| 20260901105017 | 55 | 81 | 0.0 | 0.0 | 0.00 | 0.00 | 0.00 | 81 | 1015.5 |
| 20260901104519 | 55 | 81 | 0.0 | 3.0 | 0.00 | 0.00 | 0.00 | 81 | 1015.5 |
| 20260901104016 | 55 | 81 | 0.0 | 3.0 | 0.00 | 0.00 | 0.00 | 81 | 1015.5 |
| 20260901103519 | 55 | 81 | 1.0 | 3.0 | 0.00 | 0.00 | 0.00 | 81 | 1015.5 |
| 20260901103015 | 55 | 81 | 0.0 | 2.0 | 0.00 | 0.00 | 0.00 | 82 | 1015.5 |
| 20260901102516 | 55 | 81 | 0.0 | 4.0 | 0.00 | 0.00 | 0.00 | 82 | 1015.5 |
| 20260901102016 | 55 | 81 | 1.0 | 4.0 | 0.00 | 0.00 | 0.00 | 81 | 1015.3 |
| 20260901101516 | 55 | 74 | 0.0 | 3.0 | 0.00 | 0.00 | 0.00 | 81 | 1015.4 |
| 20260901101015 | 55 | 73 | 0.0 | 2.0 | 0.00 | 0.00 | 0.00 | 81 | 1015.4 |
| 20260901100515 | 55 | 73 | 0.0 | 1.0 | 0.00 | 0.00 | 0.00 | 81 | 1015.5 |
| 20260901100015 | 55 | 73 | 0.0 | 0.0 | 0.00 | 0.00 | 0.00 | 81 | 1015.5 |
| 20260901095514 | 55 | 73 | 0.0 | 0.0 | 0.00 | 0.00 | 0.00 | 82 | 1015.5 |
| 20260901095014 | 55 | 73 | 0.0 | 0.0 | 0.00 | 0.00 | 0.00 | 82 | 1015.4 |
| 20260901094514 | 55 | 73 | 0.0 | 1.0 | 0.00 | 0.00 | 0.00 | 82 | 1015.5 |
| 20260901094013 | 55 | 73 | 0.0 | 1.0 | 0.00 | 0.00 | 0.00 | 81 | 1015.4 |
| 20260901093514 | 55 | 73 | 0.0 | 0.0 | 0.00 | 0.00 | 0.00 | 81 | 1015.3 |
| 20260901093012 | 55 | 73 | 0.0 | 0.0 | 0.00 | 0.00 | 0.00 | 81 | 1015.5 |
| 20260901092513 | 55 | 73 | 0.0 | 0.0 | 0.00 | 0.00 | 0.00 | 81 | 1015.5 |
| 20260901092012 | 55 | 73 | 0.0 | 0.0 | 0.00 | 0.00 | 0.00 | 81 | 1015.6 |
| 20260901091512 | 55 | 73 | 0.0 | 0.0 | 0.00 | 0.00 | 0.00 | 82 | 1015.5 |
| 20260901091011 | 55 | 73 | 0.0 | 0.0 | 0.00 | 0.00 | 0.00 | 82 | 1015.5 |
| 20260901090511 | 55 | 73 | 0.0 | 0.0 | 0.00 | 0.00 | 0.00 | 82 | 1015.5 |
| 20260901090016 | 55 | 73 | 0.0 | 0.0 | 0.00 | 0.00 | 0.00 | 82 | 1015.5 |
| 20260901085510 | 54 | 73 | 0.0 | 0.0 | 0.00 | 0.00 | 0.00 | 82 | 1015.5 |
| 20260901085011 | 54 | 73 | 0.0 | 0.0 | 0.00 | 0.00 | 0.00 | 82 | 1015.4 |
| 20260901084509 | 54 | 73 | 0.0 | 0.0 | 0.00 | 0.00 | 0.00 | 82 | 1015.4 |
| 20260901084009 | 54 | 73 | 0.0 | 0.0 | 0.00 | 0.00 | 0.00 | 82 | 1015.5 |
| 20260901083510 | 54 | 73 | 0.0 | 0.0 | 0.00 | 0.00 | 0.00 | 83 | 1015.5 |
| 20260901083010 | 54 | 73 | 0.0 | 1.0 | 0.00 | 0.00 | 0.00 | 83 | 1015.6 |
| 20260901082509 | 54 | 73 | 0.0 | 1.0 | 0.00 | 0.00 | 0.00 | 83 | 1015.5 |
| 20260901082009 | 54 | 73 | 0.0 | 1.0 | 0.00 | 0.00 | 0.00 | 83 | 1015.6 |
| 20260901081507 | 54 | 73 | 0.0 | 2.0 | 0.00 | 0.00 | 0.00 | 83 | 1015.6 |
| 20260901081007 | 54 | 73 | 0.0 | 1.0 | 0.00 | 0.00 | 0.00 | 83 | 1015.5 |
| 20260901080506 | 54 | 73 | 0.0 | 1.0 | 0.00 | 0.00 | 0.00 | 83 | 1015.4 |
| 20260901080006 | 54 | 73 | 0.0 | 1.0 | 0.00 | 0.00 | 0.00 | 83 | 1015.3 |
| 20260901075505 | 55 | 73 | 0.0 | 0.0 | 0.00 | 0.00 | 0.00 | 83 | 1015.2 |
| 20260901075007 | 55 | 73 | 0.0 | 0.0 | 0.00 | 0.00 | 0.00 | 83 | 1015.3 |
| 20260901074504 | 55 | 73 | 0.0 | 0.0 | 0.00 | 0.00 | 0.00 | 83 | 1015.2 |
| 20260901074007 | 55 | 73 | 0.0 | 0.0 | 0.00 | 0.00 | 0.00 | 83 | 1015.2 |
| 20260901073503 | 55 | 73 | 0.0 | 0.0 | 0.00 | 0.00 | 0.00 | 83 | 1015.2 |
| 20260901073003 | 55 | 73 | 0.0 | 0.0 | 0.00 | 0.00 | 0.00 | 83 | 1015.3 |
| 20260901072502 | 55 | 73 | 0.0 | 2.0 | 0.00 | 0.00 | 0.00 | 83 | 1015.2 |
| 20260901072003 | 55 | 73 | 0.0 | 2.0 | 0.00 | 0.00 | 0.00 | 83 | 1015.3 |
| 20260901071503 | 55 | 73 | 0.0 | 2.0 | 0.00 | 0.00 | 0.00 | 83 | 1015.3 |
| 20260901071001 | 55 | 73 | 0.0 | 0.0 | 0.00 | 0.00 | 0.00 | 83 | 1015.3 |
| 20260901070502 | 55 | 73 | 0.0 | 1.0 | 0.00 | 0.00 | 0.00 | 83 | 1015.4 |
| 20260901070001 | 55 | 73 | 0.0 | 1.0 | 0.00 | 0.00 | 0.00 | 83 | 1015.4 |
| 20260901065602 | 55 | 73 | 0.0 | 0.0 | 0.00 | 0.00 | 0.00 | 83 | 1015.5 |
| 20260901065059 | 55 | 73 | 0.0 | 0.0 | 0.00 | 0.00 | 0.00 | 83 | 1015.4 |
| 20260901064559 | 55 | 73 | 0.0 | 0.0 | 0.00 | 0.00 | 0.00 | 83 | 1015.4 |
| 20260901064102 | 55 | 73 | 0.0 | 0.0 | 0.00 | 0.00 | 0.00 | 84 | 1015.5 |
| 20260901063558 | 55 | 73 | 0.0 | 0.0 | 0.00 | 0.00 | 0.00 | 84 | 1015.4 |
| 20260901063104 | 56 | 73 | 0.0 | 0.0 | 0.00 | 0.00 | 0.00 | 84 | 1015.4 |
| 20260901062600 | 56 | 73 | 0.0 | 0.0 | 0.00 | 0.00 | 0.00 | 84 | 1015.3 |
| 20260901062101 | 56 | 73 | 0.0 | 0.0 | 0.00 | 0.00 | 0.00 | 84 | 1015.5 |
| 20260901061658 | 56 | 73 | 0.0 | 0.0 | 0.00 | 0.00 | 0.00 | 84 | 1015.4 |
| 20260901061056 | 56 | 73 | 0.0 | 0.0 | 0.00 | 0.00 | 0.00 | 84 | 1015.3 |
| 20260901060556 | 56 | 73 | 0.0 | 0.0 | 0.00 | 0.00 | 0.00 | 84 | 1015.3 |
| 20260901060056 | 56 | 73 | 0.0 | 0.0 | 0.00 | 0.00 | 0.00 | 84 | 1015.2 |
| 20260901055555 | 56 | 73 | 0.0 | 0.0 | 0.00 | 0.00 | 0.00 | 84 | 1015.1 |
| 20260901055055 | 56 | 73 | 0.0 | 0.0 | 0.00 | 0.00 | 0.00 | 84 | 1015.0 |
| 20260901054556 | 57 | 73 | 0.0 | 0.0 | 0.00 | 0.00 | 0.00 | 84 | 1015.0 |
| 20260901054058 | 57 | 73 | 0.0 | 0.0 | 0.00 | 0.00 | 0.00 | 84 | 1015.1 |
| 20260901053555 | 57 | 73 | 0.0 | 0.0 | 0.00 | 0.00 | 0.00 | 84 | 1015.0 |
| 20260901053102 | 57 | 73 | 0.0 | 0.0 | 0.00 | 0.00 | 0.00 | 84 | 1014.9 |
| 20260901052555 | 57 | 73 | 0.0 | 2.0 | 0.00 | 0.00 | 0.00 | 84 | 1014.9 |
| 20260901052054 | 57 | 73 | 0.0 | 2.0 | 0.00 | 0.00 | 0.00 | 84 | 1014.9 |
| 20260901051600 | 57 | 73 | 0.0 | 1.0 | 0.00 | 0.00 | 0.00 | 84 | 1015.0 |
| 20260901051054 | 57 | 73 | 0.0 | 4.0 | 0.00 | 0.00 | 0.00 | 84 | 1014.9 |
| 20260901050555 | 57 | 73 | 0.0 | 4.0 | 0.00 | 0.00 | 0.00 | 84 | 1014.9 |
| 20260901050048 | 57 | 70 | 0.0 | 4.0 | 0.00 | 0.00 | 0.00 | 84 | 1014.9 |
| 20260901045546 | 58 | 70 | 0.0 | 4.0 | 0.00 | 0.00 | 0.00 | 84 | 1014.9 |
| 20260901045046 | 58 | 70 | 0.0 | 3.0 | 0.00 | 0.00 | 0.00 | 84 | 1014.9 |
| 20260901044552 | 58 | 69 | 0.0 | 5.0 | 0.00 | 0.00 | 0.00 | 84 | 1014.8 |
| 20260901044046 | 58 | 69 | 0.0 | 5.0 | 0.00 | 0.00 | 0.00 | 84 | 1014.8 |
| 20260901043546 | 58 | 67 | 0.0 | 4.0 | 0.00 | 0.00 | 0.00 | 85 | 1014.9 |
| 20260901043045 | 58 | 67 | 0.0 | 5.0 | 0.00 | 0.00 | 0.00 | 85 | 1014.7 |
| 20260901042546 | 58 | 58 | 0.0 | 5.0 | 0.00 | 0.00 | 0.00 | 85 | 1014.7 |
| 20260901042042 | 58 | 47 | 0.0 | 4.0 | 0.00 | 0.00 | 0.00 | 85 | 1014.8 |
| 20260901041608 | 58 | 48 | 0.0 | 6.0 | 0.00 | 0.00 | 0.00 | 85 | 1014.7 |
| 20260901041045 | 58 | 37 | 0.0 | 8.0 | 0.00 | 0.00 | 0.00 | 85 | 1014.6 |
| 20260901040543 | 59 | 12 | 1.0 | 8.0 | 0.00 | 0.00 | 0.00 | 85 | 1014.6 |
| 20260901040022 | 59 | 52 | 0.0 | 5.0 | 0.00 | 0.00 | 0.00 | 85 | 1014.6 |
| 20260901035522 | 59 | 40 | 0.0 | 6.0 | 0.00 | 0.00 | 0.00 | 85 | 1014.5 |
| 20260901035024 | 59 | 51 | 0.0 | 4.0 | 0.00 | 0.00 | 0.00 | 85 | 1014.6 |
| 20260901034524 | 59 | 37 | 0.0 | 4.0 | 0.00 | 0.00 | 0.00 | 85 | 1014.5 |
| 20260901034020 | 59 | 46 | 0.0 | 5.0 | 0.00 | 0.00 | 0.00 | 86 | 1014.4 |
| 20260901033524 | 59 | 23 | 1.0 | 5.0 | 0.00 | 0.00 | 0.00 | 86 | 1014.3 |
| 20260901033020 | 59 | 41 | 1.0 | 5.0 | 0.00 | 0.00 | 0.00 | 86 | 1014.4 |
| 20260901032521 | 60 | 74 | 0.0 | 7.0 | 0.00 | 0.00 | 0.00 | 86 | 1014.3 |
| 20260901032020 | 60 | 10 | 0.0 | 4.0 | 0.00 | 0.00 | 0.00 | 86 | 1014.2 |
| 20260901031523 | 60 | 6 | 0.0 | 5.0 | 0.00 | 0.00 | 0.00 | 86 | 1014.2 |
| 20260901031019 | 60 | 50 | 0.0 | 7.0 | 0.00 | 0.00 | 0.00 | 86 | 1014.1 |
| 20260901030519 | 60 | 49 | 0.0 | 4.0 | 0.00 | 0.00 | 0.00 | 86 | 1013.9 |
| 20260901030013 | 61 | 24 | 0.0 | 5.0 | 0.00 | 0.00 | 0.00 | 86 | 1014.0 |
| 20260901025515 | 61 | 37 | 0.0 | 5.0 | 0.00 | 0.00 | 0.00 | 86 | 1014.0 |
| 20260901025013 | 61 | 25 | 0.0 | 3.0 | 0.00 | 0.00 | 0.00 | 86 | 1014.0 |
| 20260901024513 | 61 | 13 | 0.0 | 3.0 | 0.00 | 0.00 | 0.00 | 86 | 1013.9 |
| 20260901024013 | 62 | 12 | 0.0 | 9.0 | 0.00 | 0.00 | 0.00 | 86 | 1013.8 |
| 20260901023515 | 62 | 13 | 0.0 | 9.0 | 0.00 | 0.00 | 0.00 | 86 | 1013.7 |
| 20260901023012 | 62 | 358 | 0.0 | 8.0 | 0.00 | 0.00 | 0.00 | 86 | 1013.7 |
| 20260901022513 | 63 | 19 | 0.0 | 8.0 | 0.00 | 0.00 | 0.00 | 86 | 1013.6 |
| 20260901022012 | 63 | 21 | 2.0 | 5.0 | 0.00 | 0.00 | 0.00 | 86 | 1013.7 |
| 20260901021521 | 63 | 31 | 0.0 | 8.0 | 0.00 | 0.00 | 0.00 | 86 | 1013.6 |
| 20260901021013 | 64 | 2 | 1.0 | 7.0 | 0.00 | 0.00 | 0.00 | 86 | 1013.6 |
| 20260901020512 | 64 | 10 | 0.0 | 7.0 | 0.00 | 0.00 | 0.00 | 85 | 1013.6 |
| 20260901020012 | 64 | 354 | 0.0 | 9.0 | 0.00 | 0.00 | 0.00 | 86 | 1013.7 |
| 20260901015504 | 65 | 337 | 1.0 | 9.0 | 0.00 | 0.00 | 0.00 | 85 | 1013.6 |
| 20260901015007 | 65 | 306 | 0.0 | 6.0 | 0.00 | 0.00 | 0.00 | 85 | 1013.6 |
| 20260901014505 | 65 | 339 | 0.0 | 4.0 | 0.00 | 0.00 | 0.00 | 86 | 1013.4 |
| 20260901014004 | 65 | 288 | 0.0 | 3.0 | 0.00 | 0.00 | 0.00 | 85 | 1013.5 |
| 20260901013505 | 65 | 267 | 0.0 | 2.0 | 0.00 | 0.00 | 0.00 | 85 | 1013.4 |
| 20260901013005 | 65 | 267 | 0.0 | 6.0 | 0.00 | 0.00 | 0.00 | 85 | 1013.3 |
| 20260901012507 | 66 | 278 | 2.0 | 6.0 | 0.00 | 0.00 | 0.00 | 85 | 1013.3 |
| 20260901012009 | 66 | 271 | 1.0 | 8.0 | 0.00 | 0.00 | 0.00 | 85 | 1013.2 |
| 20260901011504 | 66 | 271 | 3.0 | 8.0 | 0.00 | 0.00 | 0.00 | 85 | 1013.3 |
| 20260901011004 | 66 | 318 | 3.0 | 8.0 | 0.00 | 0.00 | 0.00 | 85 | 1013.4 |
| 20260901010504 | 67 | 288 | 3.0 | 8.0 | 0.00 | 0.00 | 0.00 | 85 | 1013.5 |
| 20260901010002 | 67 | 4 | 2.0 | 9.0 | 0.00 | 0.00 | 0.00 | 85 | 1013.5 |
| 20260901005505 | 67 | 307 | 5.0 | 10.0 | 0.00 | 0.00 | 0.00 | 85 | 1013.5 |
| 20260901005003 | 68 | 327 | 4.0 | 10.0 | 0.00 | 0.00 | 0.00 | 84 | 1013.4 |
| 20260901004502 | 68 | 279 | 3.0 | 8.0 | 0.00 | 0.00 | 0.00 | 84 | 1013.3 |
| 20260901004002 | 68 | 308 | 3.0 | 9.0 | 0.00 | 0.00 | 0.00 | 84 | 1013.3 |
| 20260901003502 | 68 | 312 | 3.0 | 10.0 | 0.00 | 0.00 | 0.00 | 84 | 1013.4 |
| 20260901003005 | 68 | 304 | 4.0 | 10.0 | 0.00 | 0.00 | 0.00 | 84 | 1013.3 |
| 20260901002502 | 68 | 311 | 1.0 | 8.0 | 0.00 | 0.00 | 0.00 | 84 | 1013.4 |
| 20260901002005 | 69 | 308 | 2.0 | 9.0 | 0.00 | 0.00 | 0.00 | 84 | 1013.5 |
| 20260901001500 | 69 | 266 | 4.0 | 9.0 | 0.00 | 0.00 | 0.00 | 84 | 1013.6 |
| 20260901001001 | 69 | 299 | 0.0 | 8.0 | 0.00 | 0.00 | 0.00 | 84 | 1013.6 |
| 20260901000500 | 69 | 305 | 1.0 | 8.0 | 0.00 | 0.00 | 0.00 | 84 | 1013.5 |
| 20260901000100 | 70 | 325 | 2.0 | 9.0 | 0.00 | 0.00 | 0.00 | 83 | 1013.6 |
| 20260831235600 | 70 | 306 | 5.0 | 11.0 | 0.00 | 0.00 | 0.00 | 83 | 1013.6 |
| 20260831235100 | 70 | 298 | 5.0 | 11.0 | 0.00 | 0.00 | 0.00 | 83 | 1013.6 |
| 20260831234600 | 70 | 322 | 5.0 | 10.0 | 0.00 | 0.00 | 0.00 | 83 | 1013.5 |
| 20260831234101 | 70 | 298 | 3.0 | 12.0 | 0.00 | 0.00 | 0.00 | 83 | 1013.5 |
| 20260831233557 | 70 | 268 | 4.0 | 12.0 | 0.00 | 0.00 | 0.00 | 83 | 1013.7 |
| 20260831233104 | 70 | 258 | 3.0 | 10.0 | 0.00 | 0.00 | 0.00 | 83 | 1013.6 |
| 20260831232557 | 70 | 303 | 5.0 | 11.0 | 0.00 | 0.00 | 0.00 | 83 | 1013.6 |
| 20260831232057 | 70 | 336 | 4.0 | 13.0 | 0.00 | 0.00 | 0.00 | 83 | 1013.6 |
| 20260831231558 | 70 | 289 | 6.0 | 13.0 | 0.00 | 0.00 | 0.00 | 83 | 1013.9 |
| 20260831231057 | 70 | 283 | 3.0 | 13.0 | 0.00 | 0.00 | 0.00 | 83 | 1013.9 |
| 20260831230558 | 70 | 298 | 6.0 | 13.0 | 0.00 | 0.00 | 0.00 | 83 | 1013.9 |
| 20260831230111 | 70 | 310 | 4.0 | 12.0 | 0.00 | 0.00 | 0.00 | 83 | 1013.9 |
| 20260831225556 | 70 | 308 | 6.0 | 12.0 | 0.00 | 0.00 | 0.00 | 83 | 1014.1 |
| 20260831225054 | 69 | 316 | 6.0 | 11.0 | 0.00 | 0.00 | 0.00 | 83 | 1014.0 |
| 20260831224555 | 69 | 306 | 6.0 | 11.0 | 0.00 | 0.00 | 0.00 | 83 | 1014.0 |
| 20260831224054 | 69 | 313 | 6.0 | 13.0 | 0.00 | 0.00 | 0.00 | 83 | 1014.1 |
| 20260831223554 | 69 | 294 | 7.0 | 12.0 | 0.00 | 0.00 | 0.00 | 83 | 1014.1 |
| 20260831223106 | 69 | 298 | 5.0 | 13.0 | 0.00 | 0.00 | 0.00 | 83 | 1014.3 |
| 20260831222654 | 69 | 309 | 6.0 | 13.0 | 0.00 | 0.00 | 0.00 | 83 | 1014.3 |
| 20260831222054 | 69 | 300 | 8.0 | 11.0 | 0.00 | 0.00 | 0.00 | 83 | 1014.2 |
| 20260831221557 | 69 | 6 | 4.0 | 10.0 | 0.00 | 0.00 | 0.00 | 83 | 1014.2 |
| 20260831221052 | 69 | 277 | 3.0 | 14.0 | 0.00 | 0.00 | 0.00 | 83 | 1014.3 |
| 20260831220553 | 69 | 262 | 7.0 | 14.0 | 0.00 | 0.00 | 0.00 | 83 | 1014.5 |
| 20260831220052 | 69 | 285 | 5.0 | 12.0 | 0.00 | 0.00 | 0.00 | 83 | 1014.5 |
| 20260831215552 | 69 | 301 | 5.0 | 12.0 | 0.00 | 0.00 | 0.00 | 83 | 1014.5 |
| 20260831215052 | 69 | 279 | 6.0 | 15.0 | 0.00 | 0.00 | 0.00 | 83 | 1014.5 |
| 20260831214601 | 69 | 280 | 7.0 | 15.0 | 0.00 | 0.00 | 0.00 | 83 | 1014.6 |
| 20260831214051 | 69 | 306 | 5.0 | 12.0 | 0.00 | 0.00 | 0.00 | 82 | 1014.6 |
| 20260831213551 | 69 | 295 | 4.0 | 12.0 | 0.00 | 0.00 | 0.00 | 82 | 1014.6 |
| 20260831213051 | 69 | 8 | 4.0 | 11.0 | 0.00 | 0.00 | 0.00 | 83 | 1014.6 |
| 20260831212550 | 69 | 289 | 4.0 | 12.0 | 0.00 | 0.00 | 0.00 | 83 | 1014.8 |
| 20260831212049 | 69 | 297 | 7.0 | 12.0 | 0.00 | 0.00 | 0.00 | 82 | 1014.8 |
| 20260831211550 | 69 | 270 | 4.0 | 11.0 | 0.00 | 0.00 | 0.00 | 82 | 1014.8 |
| 20260831211050 | 69 | 300 | 6.0 | 12.0 | 0.00 | 0.00 | 0.00 | 82 | 1014.7 |
| 20260831210551 | 69 | 326 | 6.0 | 11.0 | 0.00 | 0.00 | 0.00 | 82 | 1014.8 |
| 20260831210049 | 69 | 312 | 3.0 | 10.0 | 0.00 | 0.00 | 0.00 | 83 | 1014.8 |
| 20260831205550 | 69 | 321 | 3.0 | 10.0 | 0.00 | 0.00 | 0.00 | 82 | 1014.8 |
| 20260831205048 | 69 | 260 | 4.0 | 13.0 | 0.00 | 0.00 | 0.00 | 82 | 1014.8 |
| 20260831204547 | 69 | 293 | 4.0 | 13.0 | 0.00 | 0.00 | 0.00 | 82 | 1014.8 |
| 20260831204046 | 69 | 323 | 6.0 | 14.0 | 0.00 | 0.00 | 0.00 | 82 | 1014.8 |
| 20260831203545 | 69 | 304 | 6.0 | 14.0 | 0.00 | 0.00 | 0.00 | 82 | 1014.8 |
| 20260831203144 | 69 | 283 | 5.0 | 13.0 | 0.00 | 0.00 | 0.00 | 82 | 1014.8 |
| 20260831202545 | 69 | 286 | 6.0 | 13.0 | 0.00 | 0.00 | 0.00 | 82 | 1014.7 |
| 20260831202044 | 69 | 274 | 5.0 | 11.0 | 0.00 | 0.00 | 0.00 | 82 | 1014.7 |
| 20260831201544 | 69 | 253 | 4.0 | 11.0 | 0.00 | 0.00 | 0.00 | 82 | 1014.7 |
| 20260831201042 | 69 | 306 | 5.0 | 12.0 | 0.00 | 0.00 | 0.00 | 82 | 1014.8 |
| 20260831200542 | 69 | 283 | 6.0 | 14.0 | 0.00 | 0.00 | 0.00 | 81 | 1014.8 |
| 20260831200046 | 69 | 302 | 7.0 | 12.0 | 0.00 | 0.00 | 0.00 | 81 | 1014.9 |
| 20260831195540 | 68 | 325 | 3.0 | 11.0 | 0.00 | 0.00 | 0.00 | 81 | 1014.9 |
| 20260831195040 | 68 | 303 | 5.0 | 11.0 | 0.00 | 0.00 | 0.00 | 81 | 1015.0 |
| 20260831194558 | 68 | 324 | 3.0 | 12.0 | 0.00 | 0.00 | 0.00 | 81 | 1015.1 |
| 20260831194040 | 68 | 273 | 5.0 | 10.0 | 0.00 | 0.00 | 0.00 | 81 | 1015.1 |
| 20260831193539 | 68 | 2 | 3.0 | 10.0 | 0.00 | 0.00 | 0.00 | 81 | 1015.2 |
| 20260831193040 | 68 | 304 | 2.0 | 11.0 | 0.00 | 0.00 | 0.00 | 81 | 1015.2 |
| 20260831192538 | 68 | 302 | 5.0 | 9.0 | 0.00 | 0.00 | 0.00 | 81 | 1015.2 |
| 20260831192036 | 67 | 317 | 5.0 | 10.0 | 0.00 | 0.00 | 0.00 | 80 | 1015.2 |
| 20260831191536 | 67 | 302 | 5.0 | 11.0 | 0.00 | 0.00 | 0.00 | 80 | 1015.4 |
| 20260831191040 | 67 | 289 | 6.0 | 11.0 | 0.00 | 0.00 | 0.00 | 80 | 1015.4 |
| 20260831190535 | 67 | 304 | 5.0 | 9.0 | 0.00 | 0.00 | 0.00 | 80 | 1015.5 |
| 20260831190035 | 67 | 312 | 3.0 | 9.0 | 0.00 | 0.00 | 0.00 | 80 | 1015.5 |
| 20260831185533 | 67 | 6 | 3.0 | 10.0 | 0.00 | 0.00 | 0.00 | 80 | 1015.4 |
| 20260831185032 | 66 | 348 | 1.0 | 11.0 | 0.00 | 0.00 | 0.00 | 79 | 1015.5 |
| 20260831184531 | 66 | 293 | 5.0 | 11.0 | 0.00 | 0.00 | 0.00 | 79 | 1015.4 |
| 20260831184029 | 66 | 4 | 1.0 | 8.0 | 0.00 | 0.00 | 0.00 | 79 | 1015.5 |
| 20260831183530 | 66 | 285 | 1.0 | 9.0 | 0.00 | 0.00 | 0.00 | 79 | 1015.6 |
| 20260831183029 | 65 | 304 | 3.0 | 7.0 | 0.00 | 0.00 | 0.00 | 78 | 1015.5 |
| 20260831182526 | 65 | 346 | 1.0 | 6.0 | 0.00 | 0.00 | 0.00 | 79 | 1015.6 |
| 20260831182025 | 64 | 325 | 0.0 | 5.0 | 0.00 | 0.00 | 0.00 | 78 | 1015.8 |
| 20260831181522 | 64 | 331 | 3.0 | 5.0 | 0.00 | 0.00 | 0.00 | 78 | 1015.7 |
| 20260831181021 | 63 | 285 | 0.0 | 3.0 | 0.00 | 0.00 | 0.00 | 79 | 1015.8 |
| 20260831180520 | 62 | 308 | 0.0 | 6.0 | 0.00 | 0.00 | 0.00 | 79 | 1015.8 |
| 20260831180001 | 62 | 299 | 1.0 | 6.0 | 0.00 | 0.00 | 0.00 | 79 | 1015.8 |
| 20260831175600 | 61 | 177 | 0.0 | 2.0 | 0.00 | 0.00 | 0.00 | 80 | 1015.8 |
| 20260831175026 | 61 | 177 | 0.0 | 2.0 | 0.00 | 0.00 | 0.00 | 79 | 1015.8 |
| 20260831174527 | 61 | 166 | 0.0 | 4.0 | 0.00 | 0.00 | 0.00 | 79 | 1015.7 |
| 20260831174025 | 60 | 167 | 1.0 | 4.0 | 0.00 | 0.00 | 0.00 | 80 | 1015.7 |
| 20260831173525 | 60 | 172 | 0.0 | 0.0 | 0.00 | 0.00 | 0.00 | 80 | 1015.6 |
| 20260831173021 | 60 | 82 | 0.0 | 4.0 | 0.00 | 0.00 | 0.00 | 80 | 1015.6 |
| 20260831172520 | 60 | 82 | 1.0 | 4.0 | 0.00 | 0.00 | 0.00 | 80 | 1015.6 |
| 20260831172015 | 60 | 19 | 0.0 | 4.0 | 0.00 | 0.00 | 0.00 | 80 | 1015.6 |
| 20260831171518 | 59 | 19 | 0.0 | 4.0 | 0.00 | 0.00 | 0.00 | 80 | 1015.6 |
| 20260831171013 | 59 | 356 | 0.0 | 3.0 | 0.00 | 0.00 | 0.00 | 80 | 1015.5 |
| 20260831170512 | 59 | 356 | 0.0 | 4.0 | 0.00 | 0.00 | 0.00 | 80 | 1015.5 |
| 20260831170027 | 59 | 354 | 0.0 | 4.0 | 0.00 | 0.00 | 0.00 | 80 | 1015.6 |
| 20260831165513 | 59 | 288 | 1.0 | 2.0 | 0.00 | 0.00 | 0.00 | 80 | 1015.5 |
| 20260831165008 | 59 | 213 | 0.0 | 0.0 | 0.00 | 0.00 | 0.00 | 80 | 1015.5 |
| 20260831164511 | 59 | 213 | 0.0 | 0.0 | 0.00 | 0.00 | 0.00 | 80 | 1015.5 |
| 20260831164010 | 58 | 213 | 0.0 | 0.0 | 0.00 | 0.00 | 0.00 | 80 | 1015.4 |
| 20260831163505 | 58 | 213 | 0.0 | 0.0 | 0.00 | 0.00 | 0.00 | 80 | 1015.4 |
| 20260831163005 | 58 | 213 | 0.0 | 0.0 | 0.00 | 0.00 | 0.00 | 80 | 1015.3 |
| 20260831162507 | 58 | 213 | 0.0 | 3.0 | 0.00 | 0.00 | 0.00 | 80 | 1015.4 |
| 20260831162003 | 58 | 213 | 0.0 | 3.0 | 0.00 | 0.00 | 0.00 | 80 | 1015.3 |
| 20260831161501 | 58 | 213 | 0.0 | 0.0 | 0.00 | 0.00 | 0.00 | 80 | 1015.3 |
| 20260831161001 | 58 | 113 | 0.0 | 1.0 | 0.00 | 0.00 | 0.00 | 80 | 1015.3 |
| 20260831160500 | 58 | 113 | 0.0 | 1.0 | 0.00 | 0.00 | 0.00 | 80 | 1015.2 |
| 20260831160100 | 58 | 113 | 0.0 | 0.0 | 0.00 | 0.00 | 0.00 | 80 | 1015.2 |
| 20260831155559 | 58 | 113 | 0.0 | 2.0 | 0.00 | 0.00 | 0.00 | 80 | 1015.1 |
| 20260831155058 | 57 | 113 | 0.0 | 2.0 | 0.00 | 0.00 | 0.00 | 80 | 1015.1 |
| 20260831154559 | 57 | 327 | 0.0 | 0.0 | 0.00 | 0.00 | 0.00 | 80 | 1015.2 |
| 20260831154157 | 57 | 327 | 0.0 | 0.0 | 0.00 | 0.00 | 0.00 | 80 | 1015.1 |
| 20260831153554 | 57 | 327 | 0.0 | 0.0 | 0.00 | 0.00 | 0.00 | 80 | 1015.1 |
| 20260831153057 | 57 | 327 | 0.0 | 0.0 | 0.00 | 0.00 | 0.00 | 80 | 1015.1 |
| 20260831152554 | 57 | 327 | 0.0 | 0.0 | 0.00 | 0.00 | 0.00 | 80 | 1015.1 |
| 20260831152051 | 57 | 327 | 0.0 | 0.0 | 0.00 | 0.00 | 0.00 | 80 | 1015.1 |
| 20260831151601 | 57 | 327 | 0.0 | 0.0 | 0.00 | 0.00 | 0.00 | 80 | 1015.1 |
| 20260831151050 | 57 | 327 | 0.0 | 0.0 | 0.00 | 0.00 | 0.00 | 80 | 1015.0 |
| 20260831150549 | 57 | 327 | 0.0 | 0.0 | 0.00 | 0.00 | 0.00 | 80 | 1015.0 |
| 20260831150048 | 57 | 327 | 0.0 | 0.0 | 0.00 | 0.00 | 0.00 | 80 | 1014.9 |
| 20260831145547 | 57 | 327 | 0.0 | 4.0 | 0.00 | 0.00 | 0.00 | 80 | 1014.9 |
| 20260831145046 | 57 | 327 | 0.0 | 8.0 | 0.00 | 0.00 | 0.00 | 80 | 1014.9 |
| 20260831144546 | 57 | 323 | 0.0 | 8.0 | 0.00 | 0.00 | 0.00 | 80 | 1014.8 |
| 20260831144047 | 57 | 339 | 1.0 | 5.0 | 0.00 | 0.00 | 0.00 | 80 | 1014.8 |
| 20260831143545 | 57 | 323 | 1.0 | 5.0 | 0.00 | 0.00 | 0.00 | 80 | 1014.7 |
| 20260831143045 | 57 | 348 | 0.0 | 4.0 | 0.00 | 0.00 | 0.00 | 80 | 1014.7 |
| 20260831142543 | 57 | 325 | 0.0 | 4.0 | 0.00 | 0.00 | 0.00 | 80 | 1014.7 |
| 20260831142042 | 57 | 325 | 0.0 | 1.0 | 0.00 | 0.00 | 0.00 | 80 | 1014.6 |
| 20260831141543 | 57 | 325 | 0.0 | 2.0 | 0.00 | 0.00 | 0.00 | 80 | 1014.6 |
| 20260831141045 | 57 | 333 | 0.0 | 2.0 | 0.00 | 0.00 | 0.00 | 80 | 1014.5 |
| 20260831140535 | 57 | 330 | 0.0 | 4.0 | 0.00 | 0.00 | 0.00 | 80 | 1014.4 |
| 20260831140046 | 57 | 330 | 0.0 | 4.0 | 0.00 | 0.00 | 0.00 | 80 | 1014.4 |
| 20260831135534 | 57 | 330 | 0.0 | 3.0 | 0.00 | 0.00 | 0.00 | 80 | 1014.2 |
| 20260831135033 | 57 | 329 | 0.0 | 1.0 | 0.00 | 0.00 | 0.00 | 80 | 1014.1 |
| 20260831134538 | 57 | 329 | 0.0 | 1.0 | 0.00 | 0.00 | 0.00 | 80 | 1013.9 |
| 20260831134033 | 57 | 330 | 0.0 | 0.0 | 0.00 | 0.00 | 0.00 | 80 | 1013.8 |
| 20260831133534 | 57 | 330 | 0.0 | 0.0 | 0.00 | 0.00 | 0.00 | 80 | 1013.7 |
| 20260831133034 | 57 | 330 | 0.0 | 0.0 | 0.00 | 0.00 | 0.00 | 80 | 1013.7 |
| 20260831132532 | 57 | 330 | 0.0 | 0.0 | 0.00 | 0.00 | 0.00 | 80 | 1013.9 |
| 20260831132032 | 57 | 329 | 0.0 | 2.0 | 0.00 | 0.00 | 0.00 | 80 | 1013.7 |
| 20260831131531 | 57 | 330 | 0.0 | 4.0 | 0.00 | 0.00 | 0.00 | 80 | 1013.7 |
| 20260831131035 | 57 | 330 | 0.0 | 4.0 | 0.00 | 0.00 | 0.00 | 80 | 1013.8 |
| 20260831130532 | 57 | 330 | 1.0 | 4.0 | 0.00 | 0.00 | 0.00 | 80 | 1013.9 |
| 20260831130031 | 57 | 69 | 0.0 | 0.0 | 0.00 | 0.00 | 0.00 | 80 | 1014.0 |
| 20260831125533 | 57 | 70 | 0.0 | 0.0 | 0.00 | 0.00 | 0.00 | 80 | 1014.0 |